{"data":{"norad_id":51759,"intl_designator":"2022-016AX","name":"STARLINK-3456","alt_names":[],"object_type":"PAYLOAD","status":"ACTIVE","operator":null,"country":"US","launch_date":"2022-02-21","launch_site_code":"AFETR","launch_vehicle":null,"mission":null,"orbit_class":"UNKNOWN","rcs_meters":null,"size_class":null,"mass_kg":null,"dimensions":null,"purposes":["comms"],"wikipedia_slug":null,"has_3d_model":false,"image_url":null,"decayed_at":null,"tle_current":{"epoch":"2026-09-20T03:51:02.271744Z","epoch_age_seconds":81575,"freshness":"FRESH","line1":"1 51759U 22016AX  26263.16044296  .00000502  00000+0  26000-4 0  9997","line2":"2 51759  53.1587 140.9590 0001217  95.9039 264.2102 15.34393468253274","mean_motion":15.34393468,"eccentricity":0.0001217,"inclination_deg":53.1587,"raan_deg":140.959,"arg_perigee_deg":95.9039,"mean_anomaly_deg":264.2102,"bstar":2.6e-5,"rev_number":25327,"period_min":93.848157596562,"perigee_km":461.89012213655,"apogee_km":463.55518737652,"semimajor_km":6840.8596547565,"source":"CELESTRAK","updated_at":"2026-09-20T09:00:39.935469Z"}}}